Retour au catalogue

ONEWEB-0040

ActifCommunicationsPO
NORAD 45147·PAYLOAD·🇬🇧 United Kingdom

Lancé Feb 6, 2020 depuis Baikonur Cosmodrome

Loading…

Prochains Passages (prochaines 24 heures)

TLE

FraisSource: CelesTrak SupGP

Époque: Sep 14, 2026, 19:01 UTC

1 45147C 20008S   26257.79289769  .00001947  00000+0  55848-2 0  2579
2 45147  87.8910  18.4337 0001731 110.8723   1.8342 13.10378450    17

Suivez ONEWEB-0040 en temps réel avec AllMySat

Download on the App Store